Weather History for 93780 - June, 2013

Change the Weather History Date:

Saturday, June 29, 2013

  Actual Average Record
Temperature  
Mean Temperature 36 °F -  
Max Temperature 48 °F 49 °F - ()
Min Temperature 24 °F 32 °F - ()
Degree Days  
Heating Degree Days 29    
Moisture  
Dew Point 31 °F    
Average Humidity 90    
Maximum Humidity 100    
Minimum Humidity 66    
Precipitation  
Precipitation 0.00 in - - ()
Sea Level Pressure  
Sea Level Pressure 30.15 in    
Wind  
Wind Speed 2 mph ()    
Max Wind Speed 8 mph    
Max Gust Speed -    
Visibility 4.3 miles    
Events Fog    
T = Trace of Precipitation, MM = Missing Value Source: Averaged Metar Reports

Daily Weather History Graph

Daily Weather History Graph

Search for Another Location

Airport or City:

Trip Planner

Search our weather history database for the weather conditions in past years. The results will help you decide how hot, cold, wet, or windy it might be!

Date:

Astronomy

Jun. 29, 2013 Rise Set
Actual Time 8:03 AM NZST 5:02 PM NZST
Civil Twilight 7:31 AM NZST 5:35 PM NZST
Nautical Twilight 6:55 AM NZST 6:11 PM NZST
Astronomical Twilight 6:20 AM NZST 6:46 PM NZST
Moon No Moon Rise 11:22 AM NZST (6/29)
Length of Visible Light 10h 04m
Length of Day
8h 58m
Waning Gibbous, 63% of the Moon is Illuminated
Jun 29
Waning Gibbous
Jun 30
Last Quarter
Jul 8
New
Jul 16
First Quarter
Jul 23
Full

Hourly Weather History & Observations

Time (NZST) Temp. Windchill Dew Point Humidity Pressure Visibility Wind Dir Wind Speed Gust Speed Precip Events Conditions
12:00 AM 30.2 °F - 30.2 °F 100% 30.21 in 6.2 mi SW 2.3 mph - N/A   Partly Cloudy
1:00 AM 30.2 °F 26.7 °F 30.2 °F 100% 30.21 in - SW 3.5 mph - N/A   Clear
2:00 AM 30.2 °F 26.7 °F 28.4 °F 93% 30.21 in - SW 3.5 mph - N/A   Clear
3:00 AM 28.4 °F - 26.6 °F 93% 30.21 in - WSW 1.2 mph - N/A   Clear
4:00 AM 28.4 °F - 26.6 °F 93% 30.18 in - SW 1.2 mph - N/A   Clear
5:00 AM 26.6 °F - 26.6 °F 100% 30.18 in - WSW 2.3 mph - N/A   Clear
6:00 AM 26.6 °F - 24.8 °F 93% 30.18 in - Calm Calm - N/A   Clear
7:00 AM 24.8 °F - 23.0 °F 93% 30.18 in - Calm Calm - N/A   Clear
8:00 AM 26.6 °F - 26.6 °F 100% 30.18 in - West 2.3 mph - N/A   Clear
9:00 AM 26.6 °F - 24.8 °F 93% 30.18 in - WSW 1.2 mph - N/A   Clear
10:00 AM 33.8 °F - 32.0 °F 93% 30.21 in - West 1.2 mph - N/A   Clear
11:00 AM 39.2 °F - 33.8 °F 81% 30.18 in - WSW 1.2 mph - N/A   Clear
12:00 PM 44.6 °F - 35.6 °F 71% 30.18 in - East 1.2 mph - N/A   Clear
1:00 PM 46.4 °F 43.5 °F 37.4 °F 71% 30.15 in - NE 5.8 mph - N/A   Clear
2:00 PM 48.2 °F - 37.4 °F 66% 30.12 in - NE 5.8 mph - N/A   Clear
3:00 PM 46.4 °F 42.9 °F 39.2 °F 76% 30.12 in - NE 6.9 mph - N/A   Clear
4:00 PM 44.6 °F 40.2 °F 39.2 °F 81% 30.12 in - NE 8.1 mph - N/A   Clear
5:00 PM 39.2 °F 34.2 °F 35.6 °F 87% 30.12 in - ENE 6.9 mph - N/A   Clear
6:00 PM 39.2 °F 37.0 °F 37.4 °F 93% 30.12 in - NE 3.5 mph - N/A   Clear
7:00 PM 35.6 °F 32.8 °F 33.8 °F 93% 30.12 in - North 3.5 mph - N/A   Clear
8:00 PM 35.6 °F 32.8 °F 33.8 °F 93% 30.12 in 6.2 mi NNW 3.5 mph - N/A Fog Shallow Fog
9:00 PM 33.8 °F - 32.0 °F 93% 30.12 in 6.2 mi North 1.2 mph - N/A Fog Shallow Fog
10:00 PM 30.2 °F - 30.2 °F 100% 30.09 in 6.2 mi North 2.3 mph - N/A   Partly Cloudy
10:10 PM 32.0 °F - 30.2 °F 93% 30.09 in 0.2 mi NNE 2.3 mph - N/A Fog Fog
11:00 PM 32.0 °F - 30.2 °F 93% 30.09 in 0.6 mi North 1.2 mph - N/A Fog Fog